User: anonymous   Login
Location: Unspecified
(0.0000°N, 0.0000°E)
Time: 12:37:47
(UTC+00:00)
Language:

Nadezhda 4 - Orbit

View from above orbital plane
View from above orbital plane
View from above satellite
View from above satellite

Ground track
Ground track

The orbit data is extracted from the following two-line orbital elements,

1 23179U 94041A   18171.63596740  .00000018  00000-0  27747-5 0  9999
2 23179  82.9469  33.8412 0034710 336.8253  46.6592 13.76546128202388
Epoch (UTC): 20 June 2018 15:15:47
Eccentricity: 0.0034710
inclination: 82.9469°
perigee height: 950 km
apogee height: 1001 km
right ascension of ascending node: 33.8412°
argument of perigee: 336.8253°
revolutions per day: 13.76546128
mean anomaly at epoch: 46.6592°
orbit number at epoch: 20238

The dashed part of the orbit path shows where the satellite is in the earth's shadow,  

DLR